Flag for Germany Weather past 2 weeks in Ingolstadt, Bavaria, Germany

Now
64 °F

Mild.


Feels Like: 64 °F
Forecast: 61 / 84 °F
Wind: 3 mph from East

Location: Ingolstadt Airport

Current Time: Jul 1, 2015 at 3:06:15 AM

Latest Report: Jul 1, 2015 at 2:20 AM


Visibility: 3 mi

Pressure: 30.12 "Hg

Humidity: 73%

Dew point: 55 °F

Location of IngolstadtLocation

Historic Weather in Ingolstadt — Graph

°F

Ingolstadt temperature yesterday

Maximum temperature yesterday: 82 °F (at 3:20 PM)
Minimum temperature yesterday: 55 °F (at 5:20 AM)
Average temperature yesterday: 69 °F

Past Weeks' High & Low Weather Summary

 TemperatureHumidityPressure
High82 °F (Jun 30, 3:20 PM)100% (Jun 18, 8:20 PM)30.24 "Hg (Jun 18, 8:20 PM)
Low45 °F (Jun 25, 4:20 AM)36% (Jun 26, 4:20 PM)29.74 "Hg (Jun 23, 12:20 AM)
Average60 °F73%30.09 "Hg
* Reported Jun 16 1:20 AM — Jul 1 1:20 AM, Ingolstadt, Weather by CustomWeather, © 2015

Note: Actual official high and low records may vary slightly from our data, if they occured in-between our weather recording intervals... More about our weather records

Advertising

Ingolstadt weather history for previous 24 hours

 ConditionsComfort  
Time TempWeatherWind HumidityBarometerVisibility
1:20 AM
Wed, Jul 1
66 °FMild.5 mph73%30.12 "Hg3 mi
12:20 AM66 °FMild.2 mph78%30.12 "Hg3 mi
11:20 PM
Tue, Jun 30
68 °FMild.2 mph73%30.12 "Hg3 mi
10:20 PM70 °FMild.2 mph69%30.12 "Hg4 mi
9:20 PM73 °FMild.No wind65%30.12 "Hg4 mi
8:20 PM77 °FWarm.No wind51%30.09 "Hg4 mi
6:20 PM82 °FPassing clouds.3 mph40%30.09 "HgN/A
4:20 PM82 °FScattered clouds.6 mph37%30.12 "HgN/A
3:20 PM82 °FPassing clouds.5 mph37%30.12 "HgN/A
2:20 PM81 °FPassing clouds.7 mph42%30.15 "HgN/A
1:20 PM81 °FPassing clouds.8 mph42%30.15 "HgN/A
12:20 PM79 °FPassing clouds.7 mph48%30.15 "HgN/A
11:20 AM77 °FPassing clouds.5 mph44%30.18 "HgN/A
10:20 AM75 °FPartly sunny.3 mph54%30.18 "HgN/A
9:20 AM72 °FPartly sunny.2 mph61%30.18 "HgN/A
8:20 AM66 °FPartly sunny.2 mph73%30.18 "HgN/A
7:20 AM61 °FPartly sunny.2 mph83%30.18 "HgN/A
6:20 AM55 °FPartly sunny.1 mph94%30.18 "HgN/A
5:20 AM55 °FPassing clouds.No wind94%30.15 "HgN/A
4:20 AM57 °FCool.3 mph88%30.15 "Hg3 mi
3:20 AM57 °FCool.3 mph94%30.15 "Hg3 mi
Weather by CustomWeather, © 2015

See weather overviewHow to use our weather pages